FW3177 Weather Reports


time (UTC)temp
C
wind
direction
speed
KPH
gust
KPH
rain 1hr
cm
rain 24hr
cm
rain mn
cm
humidity
%
barometer
mb
20260503180513 23 222 0.0 0.0 0.00 0.00 0.00 38 1013.9
20260503180013 24 77 0.0 0.0 0.00 0.00 0.00 37 1014.0
20260503175510 23 25 0.0 0.0 0.00 0.00 0.00 39 1014.0
20260503175010 23 41 0.0 0.0 0.00 0.00 0.00 38 1014.2
20260503174508 23 33 0.0 0.0 0.00 0.00 0.00 39 1014.3
20260503174006 23 77 0.0 0.0 0.00 0.00 0.00 42 1014.3
20260503173506 23 55 0.0 0.0 0.00 0.00 0.00 41 1014.4
20260503173020 22 44 0.0 0.0 0.00 0.00 0.00 41 1014.5
20260503172505 22 37 0.0 0.0 0.00 0.00 0.00 40 1014.5
20260503172005 22 39 0.0 0.0 0.00 0.00 0.00 40 1014.6
20260503171507 23 81 0.0 0.0 0.00 0.00 0.00 41 1014.6
20260503171003 22 86 0.0 0.0 0.00 0.00 0.00 41 1014.6
20260503170503 22 30 0.0 0.0 0.00 0.00 0.00 41 1014.6
20260503150543 18 58 0.0 1.6 0.00 0.00 0.00 53 1015.4
20260503131029 13 235 0.0 0.0 0.00 0.00 0.00 72 1015.0
20260503130529 12 235 0.0 0.0 0.00 0.00 0.00 73 1015.1
20260503110517 14 235 0.0 0.0 0.00 0.00 0.00 69 1015.0
20260503090505 15 235 0.0 0.0 0.00 0.00 0.00 69 1014.9
20260503081503 16 235 0.0 0.0 0.00 0.00 0.00 69 1014.9
20260503081101 16 235 0.0 0.0 0.00 0.00 0.00 67 1015.0
20260503080559 16 235 0.0 0.0 0.00 0.00 0.00 66 1014.9
20260503072555 16 235 0.0 0.0 0.00 0.00 0.00 66 1014.8
20260503072054 17 235 0.0 0.0 0.00 0.00 0.00 64 1014.8
20260503071558 17 235 0.0 0.0 0.00 0.00 0.00 62 1014.8
20260503071055 17 235 0.0 0.0 0.00 0.00 0.00 62 1014.7
20260503070550 17 235 0.0 0.0 0.00 0.00 0.00 63 1014.7
20260503060111 18 235 0.0 0.0 0.00 0.00 0.00 60 1014.4
20260503055048 18 236 0.0 0.0 0.00 0.00 0.00 60 1014.3
20260503054547 19 237 0.0 0.0 0.00 0.00 0.00 58 1014.3
20260503054047 19 213 0.0 0.0 0.00 0.00 0.00 56 1014.3
20260503053547 19 217 0.0 0.0 0.00 0.00 0.00 57 1014.4
20260503053048 19 274 0.0 0.0 0.00 0.00 0.00 57 1014.3
20260503052549 19 274 0.0 0.0 0.00 0.00 0.00 56 1014.3
20260503052047 19 275 0.0 0.0 0.00 0.00 0.00 56 1014.3
20260503051548 19 275 0.0 0.0 0.00 0.00 0.00 56 1014.2
20260503051045 19 275 0.0 0.0 0.00 0.00 0.00 56 1014.2
20260503050545 20 275 0.0 0.0 0.00 0.00 0.00 56 1014.2
20260503050045 20 275 0.0 0.0 0.00 0.00 0.00 57 1014.2
20260503045544 20 275 0.0 0.0 0.00 0.00 0.00 57 1014.2
20260503045046 20 276 0.0 0.0 0.00 0.00 0.00 57 1014.1
20260503044611 20 276 0.0 0.0 0.00 0.00 0.00 58 1014.1
20260503044045 20 276 0.0 0.0 0.00 0.00 0.00 58 1014.0
20260503043545 20 276 0.0 0.0 0.00 0.00 0.00 58 1014.0
20260503043045 20 276 0.0 0.0 0.00 0.00 0.00 57 1013.9
20260503042546 20 275 0.0 0.0 0.00 0.00 0.00 57 1013.8
20260503042046 20 276 0.0 0.0 0.00 0.00 0.00 56 1013.7
20260503041548 21 276 0.0 0.0 0.00 0.00 0.00 56 1013.7
20260503041044 21 276 0.0 0.0 0.00 0.00 0.00 55 1013.7
20260503040543 21 276 0.0 0.0 0.00 0.00 0.00 55 1013.6
20260503040043 21 276 0.0 0.0 0.00 0.00 0.00 55 1013.6
20260503035545 21 276 0.0 0.0 0.00 0.00 0.00 56 1013.5
20260503035043 21 276 0.0 0.0 0.00 0.00 0.00 55 1013.4
20260503034543 22 276 0.0 0.0 0.00 0.00 0.00 53 1013.3
20260503034042 22 276 0.0 0.0 0.00 0.00 0.00 52 1013.2
20260503033542 22 276 0.0 0.0 0.00 0.00 0.00 52 1013.2
20260503033042 22 276 0.0 0.0 0.00 0.00 0.00 52 1013.1
20260503032542 22 276 0.0 0.0 0.00 0.00 0.00 52 1013.1
20260503032042 23 276 0.0 0.0 0.00 0.00 0.00 51 1013.1
20260503031541 23 276 0.0 0.0 0.00 0.00 0.00 49 1013.0
20260503031042 23 276 0.0 0.0 0.00 0.00 0.00 49 1012.9
20260503030540 23 276 0.0 0.0 0.00 0.00 0.00 47 1012.8
20260503030043 23 276 0.0 0.0 0.00 0.00 0.00 48 1012.9
20260503025539 23 276 0.0 0.0 0.00 0.00 0.00 48 1012.9
20260503025040 23 276 0.0 0.0 0.00 0.00 0.00 47 1012.9
20260503024539 24 279 0.0 0.0 0.00 0.00 0.00 46 1012.8
20260503024039 24 279 0.0 0.0 0.00 0.00 0.00 46 1012.8
20260503023538 24 279 0.0 0.0 0.00 0.00 0.00 45 1012.9
20260503023041 24 250 0.0 0.0 0.00 0.00 0.00 45 1012.9
20260503022538 25 278 0.0 0.0 0.00 0.00 0.00 45 1012.8
20260503022038 25 271 0.0 0.0 0.00 0.00 0.00 46 1012.8
20260503021539 25 277 0.0 0.0 0.00 0.00 0.00 45 1012.7
20260503021039 25 281 0.0 0.0 0.00 0.00 0.00 46 1012.7
20260503020539 25 280 0.0 9.7 0.00 0.00 0.00 46 1012.7
20260503020039 25 278 1.6 9.7 0.00 0.00 0.00 46 1012.7
20260503015537 25 257 0.0 12.9 0.00 0.00 0.00 45 1012.7
20260503015036 26 281 1.6 12.9 0.00 0.00 0.00 44 1012.8
20260503014544 26 221 0.0 16.1 0.00 0.00 0.00 43 1012.9
20260503014036 26 259 8.0 19.3 0.00 0.00 0.00 43 1012.8
20260503013537 26 283 8.0 20.9 0.00 0.00 0.00 43 1012.8
20260503013035 26 243 6.4 20.9 0.00 0.00 0.00 43 1012.8
20260503012538 26 281 4.8 17.7 0.00 0.00 0.00 44 1012.8
20260503012034 26 263 8.0 17.7 0.00 0.00 0.00 44 1012.8
20260503011534 26 271 8.0 17.7 0.00 0.00 0.00 44 1012.8
20260503011033 26 287 8.0 19.3 0.00 0.00 0.00 44 1012.9
20260503010533 26 260 8.0 19.3 0.00 0.00 0.00 43 1012.9
20260503010034 27 250 8.0 17.7 0.00 0.00 0.00 43 1012.9
20260503005532 27 265 8.0 16.1 0.00 0.00 0.00 44 1012.9
20260503005032 27 268 8.0 16.1 0.00 0.00 0.00 43 1012.8
20260503004531 27 266 8.0 16.1 0.00 0.00 0.00 43 1012.9
20260503004030 27 243 6.4 14.5 0.00 0.00 0.00 43 1012.9
20260503003530 27 243 4.8 17.7 0.00 0.00 0.00 44 1012.9
20260503003035 27 244 8.0 17.7 0.00 0.00 0.00 44 1012.9
20260503002533 27 267 6.4 14.5 0.00 0.00 0.00 44 1012.9
20260503002031 27 268 6.4 16.1 0.00 0.00 0.00 45 1012.9
20260503001530 27 252 8.0 17.7 0.00 0.00 0.00 45 1013.0
20260503001029 27 271 6.4 17.7 0.00 0.00 0.00 45 1013.0
20260503000528 27 266 8.0 17.7 0.00 0.00 0.00 44 1013.0
20260503000035 27 250 8.0 19.3 0.00 0.00 0.00 45 1013.0
20260502235526 27 259 8.0 19.3 0.00 0.00 0.00 45 1013.1
20260502235029 27 270 8.0 19.3 0.00 0.00 0.00 44 1013.1
20260502234546 27 282 8.0 19.3 0.00 0.00 0.00 44 1013.2
20260502234026 28 283 6.4 17.7 0.00 0.00 0.00 43 1013.1
20260502233525 28 262 6.4 17.7 0.00 0.00 0.00 42 1013.2
20260502233024 28 275 3.2 22.5 0.00 0.00 0.00 42 1013.3
20260502232524 28 261 9.7 22.5 0.00 0.00 0.00 40 1013.3
20260502232023 28 250 6.4 16.1 0.00 0.00 0.00 39 1013.4
20260502231529 28 267 9.7 16.1 0.00 0.00 0.00 38 1013.4
20260502231022 28 275 6.4 16.1 0.00 0.00 0.00 34 1013.4
20260502230521 28 262 3.2 11.3 0.00 0.00 0.00 33 1013.4
20260502230022 28 295 0.0 14.5 0.00 0.00 0.00 33 1013.5
20260502225521 28 244 6.4 14.5 0.00 0.00 0.00 33 1013.7
20260502225018 28 275 6.4 12.9 0.00 0.00 0.00 34 1013.7
20260502224518 28 283 3.2 12.9 0.00 0.00 0.00 34 1013.8
20260502224019 28 247 0.0 9.7 0.00 0.00 0.00 33 1013.9
20260502223517 28 305 0.0 12.9 0.00 0.00 0.00 33 1013.9
20260502223033 28 257 4.8 12.9 0.00 0.00 0.00 33 1014.0
20260502222517 28 278 6.4 14.5 0.00 0.00 0.00 34 1014.0
20260502222016 28 283 8.0 14.5 0.00 0.00 0.00 33 1014.2
20260502221615 28 238 3.2 9.7 0.00 0.00 0.00 35 1014.2
20260502221015 28 274 1.6 11.3 0.00 0.00 0.00 35 1014.3
20260502220513 28 320 3.2 9.7 0.00 0.00 0.00 35 1014.3
20260502220013 28 259 0.0 8.0 0.00 0.00 0.00 35 1014.3
20260502215514 28 248 1.6 11.3 0.00 0.00 0.00 35 1014.4
20260502215011 28 259 1.6 8.0 0.00 0.00 0.00 36 1014.5
20260502214510 28 259 0.0 8.0 0.00 0.00 0.00 35 1014.5
20260502214016 28 255 1.6 11.3 0.00 0.00 0.00 34 1014.6
20260502213511 27 265 0.0 9.7 0.00 0.00 0.00 35 1014.6
20260502213009 28 269 3.2 8.0 0.00 0.00 0.00 36 1014.7
20260502212509 28 360 1.6 8.0 0.00 0.00 0.00 34 1014.8
20260502212008 28 283 0.0 6.4 0.00 0.00 0.00 34 1014.8
20260502211507 28 256 0.0 6.4 0.00 0.00 0.00 35 1014.9
20260502211006 27 274 0.0 6.4 0.00 0.00 0.00 36 1015.0
20260502210509 27 327 0.0 4.8 0.00 0.00 0.00 32 1015.1
20260502210004 28 323 0.0 1.6 0.00 0.00 0.00 32 1015.2
20260502205508 28 27 0.0 0.0 0.00 0.00 0.00 33 1015.2
20260502205003 27 42 0.0 4.8 0.00 0.00 0.00 35 1015.3
20260502204503 27 53 0.0 4.8 0.00 0.00 0.00 35 1015.3
20260502204002 27 162 0.0 1.6 0.00 0.00 0.00 35 1015.4
20260502203501 27 254 0.0 3.2 0.00 0.00 0.00 33 1015.4
20260502203117 27 255 0.0 3.2 0.00 0.00 0.00 33 1015.5
20260502202602 27 254 0.0 3.2 0.00 0.00 0.00 37 1015.5
20260502202059 27 255 0.0 3.2 0.00 0.00 0.00 35 1015.6
20260502201558 26 251 0.0 3.2 0.00 0.00 0.00 34 1015.7
20260502201100 27 42 0.0 0.0 0.00 0.00 0.00 34 1015.7
20260502200556 27 15 0.0 6.4 0.00 0.00 0.00 33 1015.8
20260502200059 26 261 0.0 6.4 0.00 0.00 0.00 35 1015.8
20260502195554 26 177 0.0 3.2 0.00 0.00 0.00 36 1016.0
20260502195057 26 86 0.0 1.6 0.00 0.00 0.00 38 1016.0
20260502194554 26 26 0.0 0.0 0.00 0.00 0.00 36 1016.0
20260502194052 26 65 0.0 3.2 0.00 0.00 0.00 37 1016.1
20260502193552 25 65 0.0 3.2 0.00 0.00 0.00 36 1016.2
20260502193052 25 78 0.0 3.2 0.00 0.00 0.00 38 1016.2
20260502192552 25 75 0.0 3.2 0.00 0.00 0.00 38 1016.3
20260502192050 25 41 0.0 4.8 0.00 0.00 0.00 37 1016.3
20260502191553 25 117 0.0 4.8 0.00 0.00 0.00 38 1016.3
20260502191049 25 62 0.0 0.0 0.00 0.00 0.00 40 1016.3
20260502190551 25 61 0.0 4.8 0.00 0.00 0.00 39 1016.5
20260502190048 25 123 0.0 6.4 0.00 0.00 0.00 41 1016.5
20260502185550 24 62 0.0 6.4 0.00 0.00 0.00 39 1016.5
20260502185050 25 44 0.0 0.0 0.00 0.00 0.00 39 1016.6
20260502184547 24 44 0.0 0.0 0.00 0.00 0.00 39 1016.6
20260502184046 24 37 0.0 0.0 0.00 0.00 0.00 40 1016.7
20260502183546 24 359 0.0 1.6 0.00 0.00 0.00 40 1016.7
20260502183047 23 19 0.0 1.6 0.00 0.00 0.00 41 1016.9
20260502182545 23 234 0.0 0.0 0.00 0.00 0.00 44 1016.9
20260502182044 23 176 0.0 0.0 0.00 0.00 0.00 49 1017.0
20260502181540 22 176 0.0 0.0 0.00 0.00 0.00 51 1017.0
20260502181040 22 151 0.0 0.0 0.00 0.00 0.00 50 1017.1